Wind_Speed
18 18 19 23 15 15 15 14 12 10 9 8 7 8 8 8 10 13 17 11 14 9 9 11 11 11 9 6 4 4 4 3 5 7 3 6 4 3 3 5 7 10 4 2 16
22 19 19 20 23 16 15 15 14 12 10 9 8 8 8 9 10 17 11 14 13 11 11 13 15 13 6 6 4 4 4 8 4 4 3 7 4 5 4 4 6 9 9 6 15
20 24 20 21 20 24 16 15 15 14 11 10 9 8 8 8 8 10 18 15 15 13 11 12 14 11 4 6 4 4 5 5 3 3 3 6 4 4 6 3 10 14 14 12 18
22 22 25 21 20 20 23 16 14 15 13 10 9 8 9 8 6 5 16 18 17 15 16 14 15 10 5 5 6 3 4 5 4 3 2 3 2 3 10 5 4 7 12 15 20
27 19 22 24 20 19 21 22 16 14 14 11 9 8 8 8 9 5 14 20 18 17 19 16 18 8 6 6 6 3 3 4 3 4 2 2 3 5 10 11 11 3 10 16 17
27 19 19 22 22 21 20 22 19 15 14 13 10 9 11 5 8 10 12 19 19 17 21 18 11 8 7 6 5 6 4 3 3 2 1 1 1 1 2 6 13 11 8 14 16
23 19 18 20 22 24 21 18 21 16 15 13 12 11 13 16 7 12 13 14 16 17 20 19 10 8 10 5 5 5 2 2 3 3 1 2 3 5 10 13 9 8 13 16 17
18 32 30 16 23 23 22 18 17 18 15 14 12 12 10 14 17 13 16 15 14 15 15 15 12 8 3 10 5 4 4 2 1 4 0 3 5 2 11 9 5 5 6 16 19
21 19 27 21 21 21 19 17 14 16 14 12 11 11 7 12 18 18 17 16 15 12 12 14 11 6 5 6 4 5 4 3 1 4 2 2 4 3 13 16 12 8 5 7 12
20 16 15 21 14 22 17 16 12 13 14 10 9 7 15 13 20 23 19 14 14 15 11 8 4 3 3 3 6 7 5 3 4 5 1 2 7 4 16 13 13 13 10 9 8
18 20 19 21 27 22 18 13 7 7 17 11 9 7 3 15 17 22 23 21 16 12 6 3 4 8 13 5 3 7 5 5 3 3 4 4 4 7 12 16 18 16 14 5 6
21 20 21 20 26 10 21 21 11 2 5 30 26 26 6 13 7 22 25 12 9 6 7 4 8 6 6 5 5 5 6 4 3 2 3 2 4 2 6 5 12 13 13 10 4
20 19 23 20 22 31 27 32 11 12 2 6 40 28 12 17 6 29 31 14 5 7 8 8 3 11 8 4 6 2 6 4 4 3 4 1 6 3 2 5 10 13 12 12 11
21 19 20 21 19 12 26 31 16 7 2 6 10 18 20 11 5 23 30 11 4 9 8 3 4 8 7 5 5 4 6 5 6 4 3 2 4 4 3 2 5 11 13 14 14
20 18 17 16 18 22 11 28 27 13 4 8 9 14 23 15 15 15 25 6 9 8 8 7 8 8 4 7 7 4 5 5 4 5 3 2 3 5 2 5 1 5 10 13 14
21 20 18 21 26 22 17 27 26 6 11 3 5 8 11 6 4 8 11 4 6 5 4 3 2 4 6 4 4 11 8 8 5 4 1 4 6 5 6 5 4 3 9 12 15
21 20 20 19 28 28 24 12 9 14 6 7 6 6 12 8 6 6 10 7 7 6 4 2 1 1 5 9 5 4 7 3 3 2 6 2 3 8 1 1 5 9 11 13 15
24 22 26 26 27 24 27 6 11 14 9 4 6 9 8 9 3 7 13 12 6 4 5 7 2 9 4 5 9 6 6 6 8 5 4 2 7 6 1 10 15 14 14 15 17
24 28 35 32 18 10 3 7 6 9 9 10 6 17 5 4 6 6 11 16 14 11 7 6 3 2 2 3 6 6 5 5 7 3 3 4 5 2 5 5 12 15 15 16 17
25 32 33 14 14 11 4 6 6 7 11 6 7 7 9 13 6 4 11 6 8 10 3 8 4 3 0 3 3 4 9 4 2 5 4 4 4 5 12 12 10 12 18 17 16
20 11 20 7 13 7 5 7 8 11 8 8 6 6 6 10 8 10 11 2 11 11 6 5 5 2 3 6 8 3 4 4 5 4 6 3 6 2 12 17 15 14 20 19 18
11 4 13 12 5 3 5 8 8 7 10 5 5 6 10 13 6 8 13 4 15 14 17 6 5 5 6 2 2 2 6 5 5 6 2 3 6 2 5 17 24 22 24 20 18
5 14 15 19 4 4 4 11 13 16 6 5 7 4 4 9 7 6 6 3 7 12 15 9 5 4 4 3 3 4 6 4 6 3 7 6 5 4 10 17 24 27 26 24 21
6 3 5 10 4 4 5 7 10 26 4 3 4 4 6 4 3 11 5 2 4 4 4 13 3 8 13 5 7 6 7 7 7 3 5 6 4 4 7 14 20 25 29 24 20
4 4 5 3 3 4 7 10 19 6 1 2 2 3 6 6 3 5 4 4 4 3 4 4 6 4 3 3 5 5 9 17 16 17 8 6 9 10 18 19 26 32 30 26 21
5 5 5 7 13 8 7 10 23 5 7 5 6 4 3 7 7 9 8 4 6 2 4 1 2 3 2 2 1 3 7 17 19 4 4 6 4 1 18 22 24 27 30 26 21
15 13 6 6 4 4 2 6 15 11 1 2 8 5 4 3 7 16 11 15 8 8 4 4 5 3 3 1 3 4 7 8 5 4 10 9 7 8 11 19 27 28 30 26 21
Wind_Direction
254 258 254 253 256 231 243 252 251 238 243 248 248 245 234 233 232 224 229 218 213 205 199 186 176 168 161 157 142 133 69 181 202 154 226 163 172 167 184 170 175 194 224 219 175
257 252 259 251 255 255 235 237 248 248 240 245 254 243 229 230 244 242 223 213 203 203 199 190 171 162 150 158 159 102 117 213 199 197 191 173 180 184 162 183 207 205 210 201 183
255 254 251 258 250 253 253 238 238 244 245 247 252 249 223 225 257 251 213 205 197 197 190 181 169 156 138 157 181 158 180 192 211 177 158 150 184 192 170 225 222 215 205 198 192
265 252 253 248 252 250 254 248 238 239 242 244 250 245 230 210 205 222 197 194 193 190 180 171 168 153 129 165 173 160 215 170 173 184 152 158 165 223 212 226 228 248 224 206 199
296 270 253 251 249 247 249 251 242 235 241 239 241 240 229 226 246 225 193 189 188 184 183 178 175 154 161 163 137 172 185 174 183 179 205 206 233 252 260 255 243 220 207 211 210
287 289 272 247 250 245 244 244 250 236 231 237 240 231 219 226 238 205 194 196 197 194 185 186 197 175 131 155 159 189 175 150 197 198 211 202 287 318 19 13 227 230 213 210 217
282 294 270 257 236 248 240 240 246 250 236 229 233 233 228 236 232 199 188 187 193 195 191 188 186 180 150 123 136 120 115 329 200 198 177 185 273 240 297 284 282 250 230 223 223
296 283 290 269 233 237 240 235 236 248 248 235 229 222 249 232 224 210 196 191 186 187 190 181 171 159 152 127 66 88 52 115 11 141 162 126 267 87 44 38 1 248 245 239 230
288 303 284 302 235 229 237 231 229 239 247 244 222 200 239 224 208 203 198 188 177 172 170 172 163 146 136 108 49 16 173 193 293 179 126 133 251 108 0 354 347 349 319 282 242
307 295 295 283 246 220 229 227 224 228 233 234 209 198 231 220 204 193 183 179 161 159 140 157 144 99 66 123 193 179 172 197 198 201 100 136 264 315 1 16 3 342 307 275 265
294 306 294 314 293 204 213 218 205 221 205 199 193 224 290 188 184 188 185 168 152 157 148 134 129 198 199 154 127 134 128 147 165 184 143 215 267 349 357 26 21 14 13 340 255
294 296 295 298 276 203 213 205 198 208 205 221 237 224 244 170 149 177 173 161 153 161 130 92 230 190 135 154 115 123 130 175 67 93 131 174 271 64 32 46 34 29 30 37 52
296 303 302 304 303 295 218 209 198 232 275 231 222 225 203 198 212 182 178 163 135 139 182 164 212 148 136 152 144 179 157 171 145 115 43 24 303 215 117 63 55 52 57 57 57
299 303 306 312 313 325 215 205 196 192 236 249 192 218 201 200 246 186 180 158 161 170 133 209 143 145 124 163 128 193 189 147 133 101 205 43 258 251 179 95 36 40 54 61 70
311 307 309 327 310 312 306 213 195 153 230 217 181 182 186 170 143 186 176 182 160 163 133 223 155 136 143 190 150 185 94 97 76 82 63 287 83 265 138 223 182 38 68 73 78
307 307 304 310 306 310 323 195 198 145 220 178 138 161 136 159 134 129 168 153 130 112 58 125 156 159 158 76 134 155 83 52 62 82 11 229 154 267 197 206 146 109 87 88 91
310 305 305 296 289 290 292 228 198 200 159 183 177 169 156 150 123 149 168 176 155 120 167 98 165 323 133 87 13 90 99 31 9 12 218 357 104 244 319 199 146 141 113 104 103
311 304 293 298 292 279 303 229 201 178 168 142 135 139 178 146 117 163 151 193 253 102 131 147 213 178 191 169 168 179 160 154 191 190 213 95 211 255 111 118 127 129 120 113 107
313 305 303 302 284 237 296 247 197 182 158 134 85 154 163 200 133 147 186 191 189 181 145 138 209 35 46 133 141 189 194 152 103 35 63 204 274 237 143 127 133 134 129 115 108
318 317 301 332 247 203 213 238 267 230 137 155 143 172 169 173 133 157 169 189 186 180 189 193 109 10 62 107 40 155 150 80 14 142 231 260 265 228 194 183 171 157 143 129 118
332 304 303 298 202 182 199 215 246 235 200 152 138 137 162 169 153 184 197 283 179 180 141 140 105 319 138 223 165 145 173 64 118 143 165 190 247 193 205 183 167 158 152 141 131
322 265 289 275 221 200 186 197 230 230 217 198 128 113 165 158 158 178 195 240 182 153 193 175 115 151 196 294 299 138 173 144 135 212 202 152 263 348 240 164 157 160 157 148 140
246 265 276 239 226 212 229 224 227 199 197 188 176 156 170 162 164 169 175 132 164 172 171 177 185 103 7 352 354 199 200 159 111 89 192 145 251 4 121 146 159 157 163 157 152
277 296 273 222 258 261 241 212 201 200 199 196 147 109 119 146 7 169 138 168 147 152 137 157 132 196 211 183 137 189 182 182 169 155 168 217 165 192 171 157 159 162 165 162 158
247 252 261 279 231 250 275 202 186 149 185 167 88 195 149 134 109 134 119 120 57 134 77 146 169 140 41 111 127 170 181 185 201 208 184 202 189 197 191 177 168 166 167 162 159
275 281 283 270 286 265 234 204 183 164 139 221 161 152 120 153 175 182 141 150 171 127 124 359 163 113 61 90 179 194 195 197 209 163 264 129 239 325 160 153 161 167 165 163 156
302 299 268 267 284 274 240 191 199 147 28 103 146 119 77 146 119 104 84 91 113 137 126 128 131 99 205 42 91 314 205 183 184 176 187 195 199 138 148 167 169 161 166 161 156
Height
1487 1487 1487 1489 1486 1486 1489 1491 1491 1491 1491 1490 1490 1490 1491 1491 1491 1490 1490 1493 1494 1496 1498 1499 1501 1503 1505 1507 1509 1510 1523 1530 1520 1523 1515 1514 1516 1517 1518 1519 1520 1521 1522 1523 1524
1483 1483 1484 1483 1485 1482 1483 1486 1489 1489 1489 1488 1488 1488 1488 1489 1488 1486 1488 1489 1492 1494 1496 1498 1499 1502 1505 1507 1509 1510 1524 1519 1512 1512 1512 1513 1514 1515 1518 1518 1519 1519 1520 1521 1523
1478 1480 1479 1479 1479 1481 1480 1481 1484 1486 1486 1486 1486 1487 1487 1487 1488 1481 1483 1486 1489 1492 1494 1497 1498 1501 1504 1506 1509 1510 1516 1510 1509 1510 1511 1512 1513 1514 1515 1517 1515 1515 1518 1520 1522
1473 1473 1475 1475 1475 1476 1480 1478 1479 1482 1484 1483 1484 1485 1486 1486 1488 1478 1480 1484 1487 1489 1492 1495 1498 1499 1503 1506 1506 1509 1508 1508 1508 1509 1510 1511 1512 1513 1512 1512 1512 1513 1516 1518 1519
1469 1469 1469 1471 1471 1471 1474 1477 1476 1478 1480 1481 1481 1482 1484 1484 1479 1478 1479 1482 1485 1487 1489 1493 1495 1496 1500 1502 1505 1507 1506 1507 1508 1509 1510 1510 1511 1511 1508 1510 1511 1512 1514 1516 1518
1466 1465 1464 1465 1467 1468 1469 1472 1476 1475 1475 1477 1479 1479 1481 1482 1477 1477 1478 1481 1484 1486 1486 1490 1494 1495 1497 1499 1503 1503 1505 1507 1508 1509 1510 1511 1511 1511 1508 1507 1508 1512 1513 1515 1517
1459 1457 1459 1460 1460 1465 1464 1468 1472 1473 1473 1473 1475 1477 1476 1474 1474 1475 1477 1479 1482 1485 1486 1488 1491 1494 1495 1498 1501 1503 1506 1506 1507 1509 1510 1511 1512 1511 1508 1508 1509 1510 1511 1513 1515
1455 1454 1453 1452 1455 1460 1461 1464 1467 1470 1470 1471 1472 1474 1473 1469 1471 1473 1474 1478 1480 1483 1486 1488 1490 1493 1494 1497 1500 1505 1509 1514 1508 1509 1510 1512 1516 1509 1509 1507 1507 1508 1509 1511 1514
1453 1452 1449 1449 1450 1454 1457 1460 1462 1465 1467 1468 1470 1471 1469 1465 1465 1469 1473 1475 1479 1483 1485 1487 1490 1492 1495 1500 1510 1512 1518 1516 1509 1509 1509 1511 1511 1509 1509 1507 1508 1508 1509 1509 1511
1450 1450 1448 1444 1445 1448 1453 1456 1458 1461 1464 1467 1467 1473 1462 1459 1461 1465 1470 1473 1476 1481 1486 1488 1489 1494 1497 1502 1518 1512 1511 1512 1510 1509 1509 1512 1512 1509 1509 1507 1508 1507 1506 1507 1509
1449 1446 1444 1441 1440 1443 1449 1453 1459 1460 1455 1457 1457 1456 1452 1454 1459 1461 1466 1470 1474 1478 1483 1486 1493 1497 1488 1491 1490 1497 1501 1504 1505 1506 1508 1511 1512 1512 1509 1507 1506 1506 1505 1505 1506
1444 1443 1439 1438 1433 1432 1442 1445 1448 1450 1449 1449 1453 1455 1456 1454 1456 1459 1464 1468 1471 1477 1480 1488 1490 1485 1488 1491 1492 1497 1502 1504 1506 1506 1508 1511 1509 1513 1512 1512 1511 1509 1507 1505 1505
1441 1437 1435 1432 1428 1426 1431 1440 1446 1447 1447 1442 1444 1448 1454 1455 1453 1453 1458 1461 1466 1475 1477 1481 1477 1478 1485 1493 1496 1499 1503 1505 1504 1508 1511 1511 1513 1512 1513 1513 1511 1511 1509 1506 1504
1439 1433 1432 1428 1428 1423 1425 1439 1443 1445 1452 1441 1437 1438 1446 1451 1451 1451 1455 1458 1463 1470 1476 1476 1474 1478 1483 1491 1494 1503 1498 1499 1506 1515 1525 1516 1528 1511 1512 1513 1513 1511 1510 1508 1506
1431 1431 1431 1428 1425 1426 1421 1434 1439 1441 1459 1426 1427 1428 1435 1444 1444 1449 1452 1455 1460 1463 1470 1472 1474 1480 1483 1481 1486 1495 1497 1503 1511 1522 1523 1520 1535 1510 1512 1512 1512 1513 1511 1510 1509
1427 1426 1426 1424 1424 1422 1424 1423 1435 1438 1438 1422 1420 1423 1431 1437 1441 1447 1451 1454 1457 1461 1465 1468 1470 1471 1474 1481 1482 1493 1501 1512 1523 1530 1543 1519 1522 1511 1513 1505 1511 1513 1512 1512 1512
1424 1422 1422 1422 1419 1420 1418 1416 1419 1407 1408 1418 1419 1420 1419 1431 1440 1442 1449 1453 1456 1470 1472 1469 1472 1472 1471 1482 1488 1489 1501 1541 1543 1555 1533 1524 1525 1505 1505 1506 1508 1511 1512 1513 1513
1420 1418 1413 1414 1415 1412 1415 1407 1397 1393 1397 1403 1410 1416 1421 1423 1433 1439 1444 1450 1448 1453 1469 1473 1484 1472 1467 1469 1478 1490 1490 1516 1530 1538 1519 1523 1523 1500 1506 1506 1508 1512 1514 1514 1514
1417 1412 1406 1404 1408 1410 1419 1400 1384 1385 1386 1395 1406 1412 1421 1421 1426 1433 1437 1436 1437 1442 1452 1464 1464 1467 1467 1466 1469 1486 1492 1489 1516 1527 1534 1517 1510 1505 1507 1510 1510 1512 1515 1516 1517
1415 1408 1399 1399 1402 1406 1415 1401 1391 1383 1382 1387 1396 1403 1416 1416 1424 1430 1435 1427 1431 1433 1436 1447 1464 1471 1469 1468 1472 1472 1477 1498 1508 1521 1518 1513 1509 1495 1503 1506 1508 1510 1512 1516 1518
1414 1409 1394 1395 1398 1398 1399 1395 1387 1381 1381 1383 1390 1401 1401 1405 1414 1419 1424 1421 1420 1429 1432 1440 1449 1476 1471 1469 1470 1476 1477 1486 1489 1501 1513 1516 1495 1483 1483 1491 1501 1508 1512 1515 1516
1413 1407 1396 1395 1395 1387 1387 1385 1377 1379 1380 1377 1377 1387 1393 1399 1410 1412 1412 1414 1414 1418 1427 1435 1452 1470 1469 1465 1465 1463 1468 1471 1489 1494 1511 1512 1492 1485 1485 1488 1496 1504 1508 1512 1516
1406 1400 1391 1389 1385 1381 1378 1374 1373 1375 1376 1375 1375 1374 1385 1392 1404 1404 1407 1412 1413 1415 1419 1428 1446 1475 1472 1470 1467 1465 1465 1464 1472 1483 1493 1503 1483 1485 1482 1489 1496 1501 1507 1508 1511
1403 1398 1390 1385 1380 1375 1370 1366 1369 1368 1371 1369 1370 1373 1382 1389 1391 1399 1409 1412 1413 1413 1417 1419 1434 1432 1432 1436 1450 1463 1458 1460 1459 1485 1477 1476 1478 1489 1489 1488 1492 1499 1504 1509 1512
1400 1397 1392 1386 1378 1377 1376 1363 1362 1366 1369 1369 1371 1373 1377 1391 1393 1396 1405 1411 1413 1415 1417 1421 1429 1433 1436 1438 1440 1443 1447 1452 1455 1449 1462 1461 1470 1473 1476 1477 1485 1494 1501 1505 1510
1400 1395 1388 1379 1371 1367 1366 1356 1353 1363 1365 1371 1374 1380 1379 1382 1381 1395 1395 1399 1404 1416 1417 1423 1437 1436 1445 1440 1439 1440 1445 1443 1444 1454 1455 1462 1463 1462 1471 1480 1487 1492 1498 1503 1508
1395 1390 1388 1377 1369 1364 1355 1354 1353 1354 1367 1367 1371 1375 1377 1380 1381 1384 1389 1390 1396 1405 1418 1425 1433 1439 1449 1448 1448 1448 1445 1447 1445 1446 1447 1458 1455 1462 1472 1476 1480 1488 1496 1502 1507